Location: Cardiff
(53.7833°N, 113.6000°W)
Time: 20:15:43
(UTC+00:00)

RS-15 - Pass Details

Date: 11 December 2023
Orbit: 1893 x 2151 km, 64.8° (Epoch: 24 February)

Event Time Altitude Azimuth Distance (km) Brightness Sun altitude
Exits shadow 14:08:15 15° 285° (WNW) 3,993 9.0 -12.7°
Maximum altitude 14:11:16 17° 267° (W) 3,829 9.0 -12.3°
Drops below altitude 10° 14:17:16 10° 233° (SW) 4,304 9.6 -11.4°
Sets 14:22:11 0° 214° (SW) 5,275 10.2 -10.8°
